Torna al catalogo

COSMOS 1275 DEB

AttivoPO
NORAD 42095·DEBRIS·🇷🇺 Russia

Lanciato Jun 4, 1981 da Plesetsk Cosmodrome

Loading…

Prossimi Passaggi (prossime 24 ore)

TLE

AggiornatoSource: Space-Track

Epoca: Sep 13, 2026, 08:01 UTC

1 42095U 81053PF  26256.33434353  .00000954  00000-0  86681-3 0  9996
2 42095  82.7511 111.7195 0129795 324.2572  34.9947 13.78929563641740

Traccia COSMOS 1275 DEB in tempo reale con AllMySat

Download on the App Store